User: anonymous   Login
Location: Unspecified
(0.0000°N, 0.0000°E)
Time: 03:44:31
(UTC+01:00)
Language:

Helios 1A Rocket - Orbit

View from above orbital plane
View from above orbital plane
View from above satellite
View from above satellite

Ground track
Ground track

The orbit data is extracted from the following two-line orbital elements,

1 23608U 95033D   17015.93021567 +.00000800 +00000-0 +76776-4 0  9991
2 23608 098.2171 300.6318 0017848 040.5975 319.6572 14.96085269164686
Epoch (UTC): 15 January 2017 22:19:30
Eccentricity: 0.0017848
inclination: 98.2171°
perigee height: 566 km
apogee height: 591 km
right ascension of ascending node: 300.6318°
argument of perigee: 40.5975°
revolutions per day: 14.96085269
mean anomaly at epoch: 319.6572°
orbit number at epoch: 16468

The dashed part of the orbit path shows where the satellite is in the earth's shadow,  

DLR